Location: G�ndlingen
(48.0142°N, 7.6396°E)
Time: 02:54:05
(UTC+00:00)

Cosmos 1709 Rocket - Pass Details

Date: 05 July 2020
Orbit: 948 x 1001 km, 82.9° (Epoch: 04 August)

Event Time Altitude Azimuth Distance (km) Brightness Sun altitude
Exits shadow 20:24:12 - 173° (S) 3,502 6.4 -7.5°
Reaches altitude 10° 20:26:17 10° 169° (S) 2,733 5.8 -7.7°
Maximum altitude 20:32:25 58° 92° (E) 1,146 4.2 -8.4°
Drops below altitude 10° 20:38:39 10° 16° (NNE) 2,779 6.9 -9.1°
Sets 20:41:14 0° 12° (NNE) 3,736 7.6 -9.4°
